STARLINK-11262, 62009

Orbit data source: Space-Track

STARLINK-11262, 62009 is a payload satellite owned by SpaceX/Seattle (US) in LEO that was launched on Mon, 18 Nov 2024 UTC via an FALCON 9 launch vehicle from the Air Force Western Test Range (AFWTR). Payload-class satellites include a variety of spacecraft equipped with specific instruments for various scientific and technological missions. These include communications satellites like Starlink; space stations such as the ISS; scientific satellites like the Hubble; Earth observation satellites from companies like Planet Labs, Umbra, and HawkEye 360; GPS; miniature CubeSats for education and research; and military/defense satellites.

Loading next visibility...
Identifier
62009, 2024-213B
Orbit
LEO
Last TLE update
3 hours ago
Origin
Manufacturer
SpaceX/Seattle
Mission
Operational Commercial Communications
Bus & Motor
STARLINK V2M, Unknown motor
Mass
730 kg wet, ~700 kg dry
Launch date (UTC)
2024-11-18 (8 months ago)
Launch vehicle
FALCON 9
Launch site
Air Force Western Test Range (AFWTR)
Object type
Payload
Rocket body
Debris
Shape & HBR
Box + 2 Pan, 29 m
Radar Cross Section
36.964 m², Large (>1 m²)

Expand to show TLE details & history

TLE from 3 hours ago
0 STARLINK-11262
1 62009U 24213B   25190.16916578  .00157049  00000-0  12758-2 0  9990
2 62009  53.1568 162.0185 0001562  46.5058 313.6090 15.69727910 37764
Epoch: 2025-07-09T04:03Z
TLE epoch observation values (Epoch: 2025-07-09T04:03:35.923Z)
Latitude
0.00002°
Longitude
173.76518°
Altitude
359.864 km
Speed
7.695 km/s
True Right ascension
10h 48m 04s
True Declination
0° 00' 00"
Sunlit
Object was in daylight at epoch
Visualization orbit readout
Latitude
53.00243°
Longitude
-105.50944°
Altitude
365.215 km
Speed
7.697 km/s
Apparent Right ascension
11h 11m 10s
Apparent Declination
17° 57' 35"
Sunlit
Object is in daylight
Visualization observer readout
Local Sidereal Time
19:38:02
Azimuth
308.264° NW
Elevation
-13.789°
Doppler factor
1
Orbital elements
Apogee altitude
360.989 km
Perigee altitude
358.884 km
Semi-major axis
6,738.074 km
Eccentricity
0.00016
Inclination
53.1568°
RAAN
162.0185°
Arg. of periapsis
46.5058°
True anomaly
Unknown
Mean anomaly
313.609°
Eccentric anomaly
Unknown
Mean motion
3.9241 °/min
Orbital period
91.74 mins
BSTAR
0.0012758
Loading maneuver chart data...
Loading SW <> Apogee altitude chart data...
Loading historical data...
Loading historical data...
Loading historical data...
Loading historical data...
Loading historical data...
Loading historical data...
Loading historical data...

STARLINK-11262 Visibility forecast

Observer location: undefined°, undefined°

Span
Click to sort rows by Start time (UTC) header in descending order
Start Az.
Max El. time (UTC)
Max El. Az.
Max El.
End time (UTC)
End Az.
5 mins2025-07-09 07:35:32.142Z319.65° NNW2025-07-09 07:38:32.142Z51.642° ENE36.715°2025-07-09 07:40:32.142Z109.745° ESE
|